weather.gov     
National Weather Service

Regional Weather Roundup
NWS Homepage
This page is being discontinued on March 12, 2014.
The same data is available at this site. Please update your bookmarks.
Thank you, and we apologize for the inconvenience.
Please send an email to SR-SRH.Webmaster@noaa.gov with any concerns.


Current Version
Previous Version:    01  02  03  04  05  06  07  08  09  10  11  12  13  14  15  16  17  18  19  20  21  22  23  24  25  26  27  28  29  30  
   31  32  33  34  35  36  37  38  39  40  41  42  43  44  45  46  47  48  49  50  51  52  53  
[Printable]
451
ASUS43 KFSD 220510
RWRSD

WEATHER ROUNDUP FOR SOUTH DAKOTA
NATIONAL WEATHER SERVICE SIOUX FALLS SD
1100 PM CST SUN DEC 21 2014

NOTE: "FAIR" INDICATES FEW OR NO CLOUDS BELOW 12,000 FEET WITH NO
SIGNIFICANT WEATHER AND/OR OBSTRUCTIONS TO VISIBILITY.


SDZ001>005-009-010-012>017-220600-
NORTHWEST AND NORTH CENTRAL SOUTH DAKOTA

CITY           SKY/WX    TMP DP  RH WIND       PRES   REMARKS
BUFFALO          N/A     38  35  89 W20G29    29.39R
FAITH            N/A     38  36  92 W13       29.42R
MOBRIDGE       FOG       29  28  96 SE3       29.41S VSB 1/2
$$

SDZ012>016-024>037-041>051-057-063-072>074-220600-
SOUTHWEST AND SOUTH CENTRAL SOUTH DAKOTA

CITY           SKY/WX    TMP DP  RH WIND       PRES   REMARKS
RAPID CTY ARPT CLOUDY    41  33  73 NW21G31   29.48R
PIERRE         MOCLDY    26  24  92 W3        29.42R
CUSTER         LGT SNOW  32  27  81 NW10G20   29.48S WCI  24
ELLSWORTH AFB  CLOUDY    41  33  74 NW23G30   29.47R
PHILIP         CLOUDY    40  35  83 W16       29.45R
PINE RIDGE     PTCLDY    35  30  82 SW5       29.50R
SPEARFISH      LGT RAIN  36  32  87 W18G26    29.52R
WINNER         CLOUDY    39  31  72 SW8       29.44R
$$

SDZ004>011-016>023-039-040-220600-
NORTHEAST SOUTH DAKOTA

CITY           SKY/WX    TMP DP  RH WIND       PRES   REMARKS
ABERDEEN       CLOUDY    36  33  89 S9        29.47S
WATERTOWN      CLOUDY    36  35  96 S15       29.48S FOG
SISSETON         N/A     35  34  96 SE10      29.51F WCI  27
$$

SDZ017-020-022-023-036>040-048>070-220600-
SOUTHEAST SOUTH DAKOTA

CITY           SKY/WX    TMP DP  RH WIND       PRES   REMARKS
SIOUX FALLS    CLOUDY    39  37  92 S18G28    29.54S
HURON          CLOUDY    37  35  92 S13       29.45F FOG
CHAMBERLAIN    CLOUDY    35  32  88 SW8       29.42S WCI  29
MITCHELL       CLOUDY    37  35  92 S12       29.48S
YANKTON        CLOUDY    39  37  93 S15       29.54F
$$

ABBREVIATIONS USED IN REMARKS
   TC - TEMPERATURE IN CELSIUS
  WCI - WIND CHILL INDEX
   HX - HEAT INDEX
  VSB - VISIBILITY





U.S. Dept. of Commerce
NOAA National Weather Service
1325 East West Highway
Silver Spring, MD 20910
E-mail: w-nws.webmaster@noaa.gov
Page last modified: May 16, 2007
NATIONAL WEATHER SERVICE: for Safety, for Work, for Fun - FOR LIFE